Volver al catálogo

FENGYUN 1C DEB

ActivoSSO
NORAD 31148·DEBRIS·🇨🇳 China

Lanzado May 10, 1999 desde Taiyuan Satellite Launch Center

Loading…

Próximos Pases (próximas 24 horas)

TLE

ActualizadoSource: Space-Track

Época: Sep 14, 2026, 03:49 UTC

1 31148U 99025BHA 26257.15967657  .00001865  00000-0  49526-3 0  9999
2 31148  98.8405 159.0736 0132537 309.5405  49.4133 14.44880966 14550

Sigue FENGYUN 1C DEB en tiempo real con AllMySat

Download on the App Store